Hourly Data Report for February 19, 2019

TORONTO CITY
ONTARIO
Current Station Operator: ECCC - MSC

43°40'00.000" N
79°24'00.000" W
112.50 m
6158355
71508
XTO

Download Data

Hourly Data (February 2019)
Hourly Data Report for February 19, 2019
TIME
LST
Temp Definition
°C
Dew Point Definition
°C
Rel Hum Definition
%
Precip. Amount Definition
mm

Wind Dir Definition
10's deg

Wind Spd Definition
km/h
Visibility Definition
km
Stn Press Definition
kPa
Hmdx Definition


Wind Chill Definition


Weather Definition


00:00 -11.3 -16.3 66 0.0 LegendMM LegendMM   101.85     LegendNANA
01:00 -11.4 -16.1 68 0.0 LegendMM LegendMM   101.93     LegendNANA
02:00 -11.2 -16.0 68 0.0 LegendMM LegendMM   101.99     LegendNANA
03:00 -12.2 -16.4 71 0.0 LegendMM LegendMM   102.03     LegendNANA
04:00 -12.2 -16.2 72 0.0 LegendMM LegendMM   102.03     LegendNANA
05:00 -12.0 -15.8 74 0.0 LegendMM LegendMM   102.09     LegendNANA
06:00 -11.0 -14.9 73 0.0 LegendMM LegendMM   102.16     LegendNANA
07:00 -10.2 -14.2 73 0.0 LegendMM LegendMM   102.21     LegendNANA
08:00 -9.2 -13.4 72 0.0 LegendMM LegendMM   102.27     LegendNANA
09:00 -7.7 -12.6 68 0.0 LegendMM LegendMM   102.33     LegendNANA
10:00 -6.1 -12.6 60 0.0 LegendMM LegendMM   102.38     LegendNANA
11:00 -5.4 -13.2 54 0.0 LegendMM LegendMM   102.38     LegendNANA
12:00 -4.2 -13.9 47 0.0 LegendMM LegendMM   102.38     LegendNANA
13:00 -3.8 -11.7 54 0.0 LegendMM LegendMM   102.34     LegendNANA
14:00 -3.1 -12.6 48 0.0 LegendMM LegendMM   102.27     LegendNANA
15:00 -3.4 -12.3 50 0.0 LegendMM LegendMM   102.21     LegendNANA
16:00 -3.7 -12.4 51 0.0 LegendMM LegendMM   102.19     LegendNANA
17:00 -3.8 -12.4 52 0.0 LegendMM LegendMM   102.16     LegendNANA
18:00 -4.1 -11.8 55 0.0 LegendMM LegendMM   102.18     LegendNANA
19:00 -4.6 -11.2 60 0.0 LegendMM LegendMM   102.19     LegendNANA
20:00 -5.3 -11.0 64 0.0 LegendMM LegendMM   102.13     LegendNANA
21:00 -5.4 -10.5 67 0.0 LegendMM LegendMM   102.07     LegendNANA
22:00 -5.8 -10.7 68 0.0 LegendMM LegendMM   102.06     LegendNANA
23:00 -6.4 -10.8 71 0.0 LegendMM LegendMM   102.06     LegendNANA

Notes on Data Quality.

Legend

  • E = Estimated
  • M = Missing
  • NA = Not Available*
  • [empty] = Indicates an unobserved value
Date modified: